This is the latest recevied weather packets stored in our database for station/object W5GBS-9. If no packets are shown the sender has not sent any weather packets the latest 10 day(s).
| Time | Temp. | Humidity | Pressure | Rain* | Wind** | Luminosity | Snow |
|---|---|---|---|---|---|---|---|
| 1787931608 | 30° C | 100% | 1016.8 hPa | 0 mm | - | - | - |
| 1787930888 | 29.44° C | 100% | 1016.6 hPa | 0 mm | - | - | - |
| 1787930167 | 29.44° C | 100% | 1016.6 hPa | 0 mm | - | - | - |
| 1787929445 | 28.89° C | 100% | 1016.5 hPa | 0 mm | - | - | - |
| 1787928725 | 28.33° C | 100% | 1016.4 hPa | 0 mm | - | - | - |
| 1787927283 | 26.67° C | 100% | 1016.3 hPa | 0 mm | - | - | - |
| 1787926563 | 26.11° C | 100% | 1016.2 hPa | 0 mm | - | - | - |
| 1787925843 | 25° C | 100% | 1016.1 hPa | 0 mm | - | - | - |
| 1787925122 | 24.44° C | 100% | 1016.1 hPa | 0 mm | - | - | - |
| 1787924400 | 23.89° C | 100% | 1016 hPa | 0 mm | - | - | - |
| 1787923681 | 23.33° C | 100% | 1015.7 hPa | 0 mm | - | - | - |
| 1787922959 | 22.78° C | 100% | 1015.5 hPa | 0 mm | - | - | - |
| 1787922238 | 22.22° C | 100% | 1015.4 hPa | 0 mm | - | - | - |
| 1787921519 | 21.67° C | 100% | 1015.3 hPa | 0 mm | - | - | - |
| 1787920798 | 21.67° C | 100% | 1015.1 hPa | 0 mm | - | - | - |
| 1787920076 | 21.67° C | 100% | 1015 hPa | 0 mm | - | - | - |
| 1787919356 | 21.67° C | 100% | 1014.9 hPa | 0 mm | - | - | - |
| 1787918636 | 21.67° C | 100% | 1014.9 hPa | 0 mm | - | - | - |
| 1787917915 | 21.67° C | 100% | 1014.7 hPa | 0 mm | - | - | - |
| 1787917194 | 22.22° C | 100% | 1014.7 hPa | 0 mm | - | - | - |
| 1787916473 | 22.22° C | 100% | 1014.5 hPa | 0 mm | - | - | - |
| 1787915753 | 22.22° C | 100% | 1014.7 hPa | 0 mm | - | - | - |
| 1787915032 | 22.22° C | 100% | 1014.7 hPa | 0 mm | - | - | - |
| 1787914312 | 22.22° C | 100% | 1014.8 hPa | 0 mm | - | - | - |
| 1787913591 | 22.22° C | 100% | 1014.8 hPa | 0 mm | - | - | - |
* Rain latest hour (hover to see other rain measurements)
** Current wind speed in m/s (hover to see current wind gust speed)